This is the latest recevied weather packets stored in our database for station/object KJ6LNH-1. If no packets are shown the sender has not sent any weather packets the latest 10 day(s).
| Time | Temp. | Humidity | Pressure | Rain* | Wind** | Luminosity | Snow |
|---|---|---|---|---|---|---|---|
| 1778105708 | 26.11° C | 45% | 1017.3 hPa | 0 mm | - | - | - |
| 1778105109 | 26.11° C | 44% | 1017.4 hPa | 0 mm | - | - | - |
| 1778104809 | 26.11° C | 44% | 1017.5 hPa | 0 mm | - | - | - |
| 1778104208 | 25° C | 45% | 1017.6 hPa | 0 mm | - | - | - |
| 1778103608 | 25.56° C | 47% | 1017.7 hPa | 0 mm | - | - | - |
| 1778103308 | 25.56° C | 46% | 1017.7 hPa | 0 mm | - | - | - |
| 1778103007 | 25° C | 47% | 1017.8 hPa | 0 mm | - | - | - |
| 1778102707 | 25° C | 47% | 1017.8 hPa | 0 mm | - | - | - |
| 1778102108 | 25° C | 46% | 1017.7 hPa | 0 mm | - | - | - |
| 1778101509 | 24.44° C | 45% | 1017.8 hPa | 0 mm | - | - | - |
| 1778101208 | 25° C | 45% | 1017.8 hPa | 0 mm | - | - | - |
| 1778100907 | 24.44° C | 46% | 1017.8 hPa | 0 mm | - | - | - |
| 1778100308 | 23.89° C | 46% | 1018 hPa | 0 mm | - | - | - |
| 1778099708 | 24.44° C | 45% | 1018.1 hPa | 0 mm | - | - | - |
| 1778098808 | 23.89° C | 44% | 1018.3 hPa | 0 mm | - | - | - |
| 1778098508 | 23.89° C | 45% | 1018.4 hPa | 0 mm | - | - | - |
| 1778098207 | 23.33° C | 48% | 1018.4 hPa | 0 mm | - | - | - |
| 1778097608 | 23.33° C | 48% | 1018.6 hPa | 0 mm | - | - | - |
| 1778097308 | 23.33° C | 47% | 1018.7 hPa | 0 mm | - | - | - |
| 1778097007 | 23.33° C | 48% | 1018.7 hPa | 0 mm | - | - | - |
| 1778096710 | 23.33° C | 49% | 1018.7 hPa | 0 mm | - | - | - |
| 1778096108 | 23.33° C | 49% | 1018.8 hPa | 0 mm | - | - | - |
| 1778095508 | 23.33° C | 51% | 1018.9 hPa | 0 mm | - | - | - |
| 1778095336 | 23.33° C | 52% | 1018.9 hPa | 0 mm | - | - | - |
| 1778095208 | 23.33° C | 52% | 1018.9 hPa | 0 mm | - | - | - |
* Rain latest hour (hover to see other rain measurements)
** Current wind speed in m/s (hover to see current wind gust speed)